User: anonymous   Login
Location: Demmingen
(48.6757°N, 10.4375°E)
Time: 18:59:30
(UTC+00:00)
Language:

Meteor 1-12 Rocket - Orbit

View from above orbital plane
View from above orbital plane
View from above satellite
View from above satellite

Ground track
Ground track

The orbit data is extracted from the following two-line orbital elements,

1 06080U 72049B   24199.60981915  .00000215  00000-0  13403-3 0  9992
2 06080  81.2389  24.3644 0048334 215.3515 144.4444 14.01122314659222
Epoch (UTC): 17 July 2024 14:38:08
Eccentricity: 0.0048334
inclination: 81.2389°
perigee height: 855 km
apogee height: 925 km
right ascension of ascending node: 24.3644°
argument of perigee: 215.3515°
revolutions per day: 14.01122314
mean anomaly at epoch: 144.4444°
orbit number at epoch: 65922

The dashed part of the orbit path shows where the satellite is in the earth's shadow,  

DLR